,,Stat6,,Stat2,,Stat8,,Stat9,,Stat10,,Wind1,,Wind1,
time,status,PA1M_AVG,status,PR1M_SUM,status,RH1M_AVG,status,SR1M_AVG,status,TA1M_AVG,status,W1dAve1m,status,W1sAve1m,
2004-05-28, 00:00:01,VALID,920.207,VALID,0,VALID,99.8795,VALID,0,VALID,19.1039,VALID,357,VALID,0.0954861,
2004-05-28, 00:01:00,VALID,920.199,VALID,0,VALID,99.9201,VALID,0,VALID,19.1327,VALID,356,VALID,0.243902,
2004-05-28, 00:02:00,VALID,920.168,VALID,0,VALID,99.9112,VALID,-0.0169808,VALID,19.1521,VALID,355,VALID,0.321057,
2004-05-28, 00:03:00,VALID,920.155,VALID,0,VALID,99.9074,VALID,0,VALID,19.1749,VALID,355,VALID,0.21766,
2004-05-28, 00:04:01,VALID,920.141,VALID,0,VALID,99.9087,VALID,0,VALID,19.2005,VALID,355,VALID,0.156783,
2004-05-28, 00:05:00,VALID,920.124,VALID,0,VALID,99.8833,VALID,0,VALID,19.2204,VALID,355,VALID,0.0853924,
2004-05-28, 00:06:00,VALID,920.095,VALID,0,VALID,99.8756,VALID,0.0339617,VALID,19.2296,VALID,355,VALID,0.101926,
2004-05-28, 00:07:00,VALID,920.083,VALID,0,VALID,99.8349,VALID,0.0509425,VALID,19.2393,VALID,355,VALID,0.186198,
2004-05-28, 00:08:01,VALID,920.077,VALID,0,VALID,99.8197,VALID,0.0339617,VALID,19.2423,VALID,355,VALID,0.200036,
2004-05-28, 00:09:00,VALID,920.073,VALID,0,VALID,99.8807,VALID,0.0339617,VALID,19.2552,VALID,355,VALID,0.122743,
2004-05-28, 00:10:00,VALID,920.079,VALID,0,VALID,99.9545,VALID,0,VALID,19.2845,VALID,354,VALID,0.255022,
2004-05-28, 00:11:00,VALID,920.079,VALID,0,VALID,99.9659,VALID,0.0509425,VALID,19.3038,VALID,347,VALID,0.352834,
2004-05-28, 00:12:01,VALID,920.081,VALID,0,VALID,99.9804,VALID,0,VALID,19.3394,VALID,347,VALID,0.110283,
2004-05-28, 00:13:01,VALID,920.089,VALID,0,VALID,99.9468,VALID,0.0169808,VALID,19.359,VALID,347,VALID,0.15532,
2004-05-28, 00:14:00,VALID,920.1,VALID,0,VALID,99.9036,VALID,0.0169808,VALID,19.3615,VALID,347,VALID,0.350761,
2004-05-28, 00:15:01,VALID,920.109,VALID,0,VALID,99.8884,VALID,0.0169808,VALID,19.3649,VALID,347,VALID,0.229802,
2004-05-28, 00:16:00,VALID,920.097,VALID,0,VALID,99.8731,VALID,0.0169808,VALID,19.3843,VALID,347,VALID,0.0111861,
2004-05-28, 00:17:01,VALID,920.111,VALID,0,VALID,99.8502,VALID,0.0509425,VALID,19.3744,VALID,347,VALID,0.16183,
2004-05-28, 00:18:01,VALID,920.118,VALID,0,VALID,99.8629,VALID,0.0339617,VALID,19.3709,VALID,348,VALID,0.511083,
2004-05-28, 00:19:01,VALID,920.133,VALID,0,VALID,99.8922,VALID,0,VALID,19.4044,VALID,349,VALID,0.365699,
2004-05-28, 00:20:00,VALID,920.152,VALID,0,VALID,99.91,VALID,0,VALID,19.3975,VALID,349,VALID,0.260476,
2004-05-28, 00:21:01,VALID,920.153,VALID,0,VALID,99.9494,VALID,0,VALID,19.4007,VALID,349,VALID,0.00546875,
2004-05-28, 00:22:00,VALID,920.168,VALID,0,VALID,99.9931,VALID,-0.0169808,VALID,19.4037,VALID,349,VALID,0.0554142,
2004-05-28, 00:23:01,VALID,920.168,VALID,0,VALID,100,VALID,0.0169808,VALID,19.4235,VALID,349,VALID,0.0280107,
2004-05-28, 00:24:00,VALID,920.17,VALID,0,VALID,99.9906,VALID,0.0169808,VALID,19.433,VALID,349,VALID,0,
2004-05-28, 00:25:01,VALID,920.184,VALID,0,VALID,99.9735,VALID,-0.0169808,VALID,19.4365,VALID,349,VALID,0,
2004-05-28, 00:26:00,VALID,920.17,VALID,0,VALID,99.9685,VALID,0,VALID,19.4069,VALID,349,VALID,0,
2004-05-28, 00:27:00,VALID,920.169,VALID,0,VALID,99.9858,VALID,-0.0339617,VALID,19.4067,VALID,349,VALID,0,
2004-05-28, 00:28:00,VALID,920.169,VALID,0,VALID,100,VALID,0,VALID,19.4226,VALID,349,VALID,0,
2004-05-28, 00:29:01,VALID,920.152,VALID,0,VALID,99.9931,VALID,0,VALID,19.426,VALID,349,VALID,0,
2004-05-28, 00:30:00,VALID,920.136,VALID,0,VALID,99.9758,VALID,0,VALID,19.4099,VALID,349,VALID,0,
2004-05-28, 00:31:00,VALID,920.131,VALID,0,VALID,99.9822,VALID,-0.0169808,VALID,19.4101,VALID,349,VALID,0,
2004-05-28, 00:32:00,VALID,920.113,VALID,0,VALID,99.9855,VALID,0.0339617,VALID,19.3898,VALID,349,VALID,0,
2004-05-28, 00:33:00,VALID,920.09,VALID,0,VALID,100,VALID,0.0339617,VALID,19.4166,VALID,349,VALID,0.171875,
2004-05-28, 00:34:00,VALID,920.069,VALID,0,VALID,100,VALID,0.0339617,VALID,19.4263,VALID,349,VALID,0.237723,
2004-05-28, 00:35:00,VALID,920.027,VALID,0,VALID,100,VALID,0,VALID,19.4419,VALID,349,VALID,0,
2004-05-28, 00:36:01,VALID,919.988,VALID,0,VALID,100,VALID,0,VALID,19.4586,VALID,349,VALID,0,
2004-05-28, 00:37:00,VALID,919.957,VALID,0,VALID,100,VALID,0.0169808,VALID,19.4452,VALID,349,VALID,0,
2004-05-28, 00:38:01,VALID,919.939,VALID,0,VALID,100,VALID,0.0169808,VALID,19.4648,VALID,349,VALID,0,
2004-05-28, 00:39:00,VALID,919.906,VALID,0,VALID,100,VALID,0,VALID,19.4521,VALID,349,VALID,0,
2004-05-28, 00:40:00,VALID,919.893,VALID,0,VALID,100,VALID,0,VALID,19.4166,VALID,349,VALID,0,
2004-05-28, 00:41:01,VALID,919.884,VALID,0,VALID,100,VALID,0,VALID,19.4099,VALID,349,VALID,0,
2004-05-28, 00:42:00,VALID,919.875,VALID,0,VALID,100,VALID,0,VALID,19.3938,VALID,349,VALID,0,
2004-05-28, 00:43:00,VALID,919.865,VALID,0,VALID,100,VALID,-0.0169808,VALID,19.4037,VALID,349,VALID,0,
2004-05-28, 00:44:00,VALID,919.865,VALID,0,VALID,100,VALID,0.0169808,VALID,19.4164,VALID,349,VALID,0,
2004-05-28, 00:45:00,VALID,919.844,VALID,0,VALID,100,VALID,0.0169808,VALID,19.4449,VALID,349,VALID,0.109197,
2004-05-28, 00:46:00,VALID,919.836,VALID,0,VALID,100,VALID,0,VALID,19.4772,VALID,349,VALID,0.0600142,
2004-05-28, 00:47:00,VALID,919.808,VALID,0,VALID,100,VALID,0,VALID,19.4717,VALID,349,VALID,0.0298828,
2004-05-28, 00:48:00,VALID,919.775,VALID,0,VALID,100,VALID,0.0169808,VALID,19.4415,VALID,349,VALID,0.0560547,
2004-05-28, 00:49:00,VALID,919.754,VALID,0,VALID,100,VALID,0,VALID,19.4519,VALID,349,VALID,0,
2004-05-28, 00:50:00,VALID,919.72,VALID,0,VALID,100,VALID,0,VALID,19.4708,VALID,349,VALID,0.0167151,
2004-05-28, 00:51:00,VALID,919.703,VALID,0,VALID,100,VALID,0,VALID,19.4938,VALID,349,VALID,0.129616,
2004-05-28, 00:52:00,VALID,919.668,VALID,0,VALID,100,VALID,0,VALID,19.5296,VALID,349,VALID,0.273624,
2004-05-28, 00:53:00,VALID,919.647,VALID,0,VALID,100,VALID,0,VALID,19.5388,VALID,351,VALID,0.322409,
2004-05-28, 00:54:01,VALID,919.628,VALID,0,VALID,100,VALID,0,VALID,19.5227,VALID,2,VALID,0.521802,
2004-05-28, 00:55:00,VALID,919.62,VALID,0,VALID,100,VALID,0.0339617,VALID,19.5167,VALID,5,VALID,0.265285,
2004-05-28, 00:56:00,VALID,919.613,VALID,0.2,VALID,100,VALID,0,VALID,19.4904,VALID,1,VALID,0.216797,
2004-05-28, 00:57:00,VALID,919.607,VALID,0,VALID,100,VALID,0.0339617,VALID,19.4804,VALID,360,VALID,0.0678943,
2004-05-28, 00:58:00,VALID,919.606,VALID,0,VALID,100,VALID,0.0339617,VALID,19.4807,VALID,360,VALID,0.103711,
2004-05-28, 00:59:00,VALID,919.6,VALID,0,VALID,100,VALID,0.0169808,VALID,19.4931,VALID,360,VALID,0,
2004-05-28, 01:00:00,VALID,919.61,VALID,0,VALID,100,VALID,0.0339617,VALID,19.4901,VALID,360,VALID,0,
2004-05-28, 01:01:00,VALID,919.609,VALID,0,VALID,100,VALID,0,VALID,19.4968,VALID,360,VALID,0,
2004-05-28, 01:02:01,VALID,919.629,VALID,0,VALID,100,VALID,0.0169808,VALID,19.4899,VALID,360,VALID,0.0585938,
2004-05-28, 01:03:00,VALID,919.629,VALID,0,VALID,100,VALID,0,VALID,19.4645,VALID,360,VALID,0.100991,
2004-05-28, 01:04:00,VALID,919.652,VALID,0,VALID,100,VALID,-0.0169808,VALID,19.4613,VALID,360,VALID,0.0761719,
2004-05-28, 01:05:01,VALID,919.658,VALID,0,VALID,100,VALID,0.0339617,VALID,19.4583,VALID,360,VALID,0,
2004-05-28, 01:06:01,VALID,919.666,VALID,0,VALID,100,VALID,0.0339617,VALID,19.4546,VALID,360,VALID,0.0977471,
2004-05-28, 01:07:00,VALID,919.664,VALID,0,VALID,100,VALID,0.0169808,VALID,19.4581,VALID,360,VALID,0.184832,
2004-05-28, 01:08:00,VALID,919.66,VALID,0,VALID,100,VALID,0.0169808,VALID,19.4415,VALID,360,VALID,0.0743963,
2004-05-28, 01:09:00,VALID,919.648,VALID,0,VALID,100,VALID,0.0169808,VALID,19.4511,VALID,360,VALID,0.274164,
2004-05-28, 01:10:01,VALID,919.628,VALID,0,VALID,100,VALID,0,VALID,19.4869,VALID,360,VALID,0.160252,
2004-05-28, 01:11:01,VALID,919.603,VALID,0,VALID,100,VALID,0.0339617,VALID,19.4807,VALID,3,VALID,0.455078,
2004-05-28, 01:12:01,VALID,919.583,VALID,0,VALID,100,VALID,0.0169808,VALID,19.4936,VALID,3,VALID,0.181055,
2004-05-28, 01:13:00,VALID,919.567,VALID,0,VALID,100,VALID,0.0339617,VALID,19.5035,VALID,3,VALID,0.275841,
2004-05-28, 01:14:01,VALID,919.538,VALID,0,VALID,100,VALID,0.0339617,VALID,19.5254,VALID,3,VALID,0.190848,
2004-05-28, 01:15:01,VALID,919.507,VALID,0,VALID,100,VALID,0.0509425,VALID,19.5418,VALID,3,VALID,0.0917969,
2004-05-28, 01:16:00,VALID,919.496,VALID,0,VALID,100,VALID,0.0509425,VALID,19.509,VALID,3,VALID,0,
2004-05-28, 01:17:01,VALID,919.458,VALID,0,VALID,100,VALID,0.0679233,VALID,19.5093,VALID,3,VALID,0.374238,
2004-05-28, 01:18:01,VALID,919.437,VALID,0,VALID,100,VALID,0.0169808,VALID,19.5381,VALID,5,VALID,0.486555,
2004-05-28, 01:19:01,VALID,919.427,VALID,0,VALID,100,VALID,0.0169808,VALID,19.5743,VALID,5,VALID,0.55545,
2004-05-28, 01:20:01,VALID,919.416,VALID,0,VALID,100,VALID,0,VALID,19.6004,VALID,6,VALID,0.365625,
2004-05-28, 01:21:01,VALID,919.389,VALID,0,VALID,100,VALID,0,VALID,19.5932,VALID,6,VALID,0.25686,
2004-05-28, 01:22:01,VALID,919.386,VALID,0,VALID,100,VALID,0,VALID,19.6131,VALID,6,VALID,0.00488281,
2004-05-28, 01:23:00,VALID,919.361,VALID,0,VALID,100,VALID,0.0339617,VALID,19.5999,VALID,6,VALID,0.0809659,
2004-05-28, 01:24:01,VALID,919.334,VALID,0,VALID,100,VALID,0.0169808,VALID,19.5942,VALID,6,VALID,0.00114329,
2004-05-28, 01:25:01,VALID,919.299,VALID,0,VALID,100,VALID,0.0169808,VALID,19.5448,VALID,6,VALID,0.0558764,
2004-05-28, 01:26:01,VALID,919.263,VALID,0,VALID,100,VALID,0.0339617,VALID,19.5192,VALID,6,VALID,0,
2004-05-28, 01:27:01,VALID,919.229,VALID,0,VALID,100,VALID,0,VALID,19.5097,VALID,6,VALID,0,
2004-05-28, 01:28:01,VALID,919.177,VALID,0,VALID,100,VALID,-0.0169808,VALID,19.5035,VALID,6,VALID,0.0190304,
2004-05-28, 01:29:00,VALID,919.126,VALID,0,VALID,100,VALID,0,VALID,19.4998,VALID,6,VALID,0.00173611,
2004-05-28, 01:30:01,VALID,919.08,VALID,0,VALID,100,VALID,-0.0169808,VALID,19.4998,VALID,5,VALID,0.177734,
2004-05-28, 01:31:01,VALID,919.031,VALID,0,VALID,100,VALID,0,VALID,19.4839,VALID,5,VALID,0.245486,
2004-05-28, 01:32:01,VALID,919.007,VALID,0,VALID,100,VALID,-0.0169808,VALID,19.4844,VALID,10,VALID,0.0614347,
2004-05-28, 01:33:01,VALID,918.969,VALID,0,VALID,100,VALID,-0.0169808,VALID,19.465,VALID,97,VALID,0.487432,
2004-05-28, 01:34:01,VALID,918.949,VALID,0,VALID,100,VALID,-0.0169808,VALID,19.4618,VALID,153,VALID,0.657522,
2004-05-28, 01:35:01,VALID,918.928,VALID,0,VALID,100,VALID,-0.0169808,VALID,19.4223,VALID,146,VALID,0.663867,
2004-05-28, 01:36:01,VALID,918.904,VALID,0,VALID,100,VALID,-0.0169808,VALID,19.4099,VALID,143,VALID,0.817336,
2004-05-28, 01:37:01,VALID,918.88,VALID,0,VALID,100,VALID,0,VALID,19.4097,VALID,144,VALID,0.738653,
2004-05-28, 01:38:01,VALID,918.853,VALID,0,VALID,100,VALID,-0.0169808,VALID,19.4067,VALID,132,VALID,1.25055,
2004-05-28, 01:39:01,VALID,918.832,VALID,0,VALID,100,VALID,0,VALID,19.3642,VALID,126,VALID,1.17359,
2004-05-28, 01:40:01,VALID,918.804,VALID,0,VALID,100,VALID,0.0169808,VALID,19.3486,VALID,126,VALID,1.18899,
2004-05-28, 01:41:01,VALID,918.784,VALID,0,VALID,100,VALID,0,VALID,19.3287,VALID,127,VALID,0.729353,
2004-05-28, 01:42:01,VALID,918.766,VALID,0,VALID,100,VALID,0,VALID,19.3421,VALID,107,VALID,0.228981,
2004-05-28, 01:43:00,VALID,918.745,VALID,0,VALID,100,VALID,-0.0169808,VALID,19.3448,VALID,117,VALID,0.654297,
2004-05-28, 01:44:01,VALID,918.735,VALID,0,VALID,100,VALID,-0.0169808,VALID,19.3414,VALID,125,VALID,0.638951,
2004-05-28, 01:45:01,VALID,918.721,VALID,0,VALID,100,VALID,0,VALID,19.3483,VALID,141,VALID,0.286086,
2004-05-28, 01:46:01,VALID,918.717,VALID,0,VALID,100,VALID,0,VALID,19.3612,VALID,140,VALID,0.12862,
2004-05-28, 01:47:01,VALID,918.717,VALID,0,VALID,100,VALID,0,VALID,19.39,VALID,124,VALID,0.117535,
2004-05-28, 01:48:01,VALID,918.697,VALID,0,VALID,100,VALID,0,VALID,19.4233,VALID,124,VALID,0.109776,
2004-05-28, 01:49:01,VALID,918.689,VALID,0,VALID,100,VALID,0.0169808,VALID,19.4327,VALID,125,VALID,0.469283,
2004-05-28, 01:50:01,VALID,918.693,VALID,0,VALID,100,VALID,-0.0169808,VALID,19.3843,VALID,127,VALID,0.550967,
2004-05-28, 01:51:01,VALID,918.681,VALID,0,VALID,100,VALID,-0.0169808,VALID,19.3451,VALID,127,VALID,0.509909,
2004-05-28, 01:52:01,VALID,918.691,VALID,0,VALID,100,VALID,0,VALID,19.3257,VALID,129,VALID,0.71684,
2004-05-28, 01:53:01,VALID,918.703,VALID,0,VALID,100,VALID,0,VALID,19.3257,VALID,123,VALID,0.525534,
2004-05-28, 01:54:01,VALID,918.696,VALID,0,VALID,100,VALID,-0.0339617,VALID,19.3227,VALID,100,VALID,0.456659,
2004-05-28, 01:55:01,VALID,918.711,VALID,0,VALID,100,VALID,0,VALID,19.3185,VALID,67,VALID,0.482922,
2004-05-28, 01:56:01,VALID,918.713,VALID,0,VALID,100,VALID,0,VALID,19.322,VALID,55,VALID,0.548828,
2004-05-28, 01:57:01,VALID,918.719,VALID,0,VALID,100,VALID,0.0339617,VALID,19.3193,VALID,73,VALID,0.632254,
2004-05-28, 01:58:01,VALID,918.719,VALID,0,VALID,100,VALID,0,VALID,19.3093,VALID,100,VALID,0.487393,
2004-05-28, 01:59:01,VALID,918.719,VALID,0,VALID,100,VALID,0.0169808,VALID,19.2929,VALID,131,VALID,0.766927,
2004-05-28, 02:00:01,VALID,918.716,VALID,0,VALID,100,VALID,0.0169808,VALID,19.2835,VALID,138,VALID,0.861151,
2004-05-28, 02:01:01,VALID,918.709,VALID,0,VALID,100,VALID,0,VALID,19.2674,VALID,125,VALID,1.07903,
2004-05-28, 02:02:01,VALID,918.707,VALID,0,VALID,100,VALID,0,VALID,19.2512,VALID,137,VALID,0.659226,
2004-05-28, 02:03:01,VALID,918.712,VALID,0,VALID,100,VALID,0,VALID,19.2544,VALID,144,VALID,0.561257,
2004-05-28, 02:04:00,VALID,918.702,VALID,0,VALID,100,VALID,0.0169808,VALID,19.2549,VALID,151,VALID,0.765799,
2004-05-28, 02:05:00,VALID,918.698,VALID,0,VALID,100,VALID,0,VALID,19.2547,VALID,136,VALID,0.612043,
2004-05-28, 02:06:00,VALID,918.694,VALID,0,VALID,100,VALID,0.0169808,VALID,19.2187,VALID,128,VALID,1.00327,
2004-05-28, 02:07:00,VALID,918.706,VALID,0,VALID,100,VALID,0,VALID,19.2127,VALID,123,VALID,0.419141,
2004-05-28, 02:08:00,VALID,918.706,VALID,0,VALID,100,VALID,0,VALID,19.2063,VALID,123,VALID,0.0558036,
2004-05-28, 02:09:00,VALID,918.709,VALID,0,VALID,100,VALID,0,VALID,19.2252,VALID,123,VALID,0,
2004-05-28, 02:10:00,VALID,918.708,VALID,0,VALID,100,VALID,0,VALID,19.2418,VALID,123,VALID,0,
2004-05-28, 02:11:00,VALID,918.704,VALID,0,VALID,100,VALID,0,VALID,19.2582,VALID,123,VALID,0,
2004-05-28, 02:12:00,VALID,918.701,VALID,0,VALID,100,VALID,0,VALID,19.2711,VALID,123,VALID,0.036044,
2004-05-28, 02:13:00,VALID,918.688,VALID,0,VALID,100,VALID,0,VALID,19.2644,VALID,123,VALID,0.101935,
2004-05-28, 02:14:00,VALID,918.685,VALID,0,VALID,100,VALID,0,VALID,19.2738,VALID,123,VALID,0.0876524,
2004-05-28, 02:15:00,VALID,918.682,VALID,0,VALID,100,VALID,0,VALID,19.2517,VALID,123,VALID,0,
2004-05-28, 02:16:00,VALID,918.679,VALID,0,VALID,100,VALID,0,VALID,19.2574,VALID,123,VALID,0.000887784,
2004-05-28, 02:17:00,VALID,918.671,VALID,0,VALID,100,VALID,0,VALID,19.2872,VALID,123,VALID,0.0357639,
2004-05-28, 02:18:00,VALID,918.661,VALID,0,VALID,100,VALID,0,VALID,19.3063,VALID,123,VALID,0,
2004-05-28, 02:19:00,VALID,918.65,VALID,0,VALID,100,VALID,0,VALID,19.3356,VALID,123,VALID,0,
2004-05-28, 02:20:00,VALID,918.646,VALID,0,VALID,100,VALID,0.0169808,VALID,19.3349,VALID,123,VALID,0,
2004-05-28, 02:21:00,VALID,918.656,VALID,0,VALID,100,VALID,0.0169808,VALID,19.3386,VALID,123,VALID,0,
2004-05-28, 02:22:00,VALID,918.63,VALID,0,VALID,100,VALID,0.0509425,VALID,19.3093,VALID,123,VALID,0,
2004-05-28, 02:23:00,VALID,918.624,VALID,0,VALID,100,VALID,0.0169808,VALID,19.3101,VALID,123,VALID,0.0892079,
2004-05-28, 02:24:00,VALID,918.616,VALID,0,VALID,100,VALID,0.0339617,VALID,19.2865,VALID,128,VALID,0.456836,
2004-05-28, 02:25:00,VALID,918.614,VALID,0,VALID,100,VALID,0.0169808,VALID,19.283,VALID,142,VALID,0.657774,
2004-05-28, 02:26:00,VALID,918.612,VALID,0,VALID,100,VALID,0.0339617,VALID,19.2892,VALID,129,VALID,0.874645,
2004-05-28, 02:27:00,VALID,918.626,VALID,0,VALID,100,VALID,0.0509425,VALID,19.2959,VALID,126,VALID,0.350074,
2004-05-28, 02:28:00,VALID,918.642,VALID,0,VALID,100,VALID,0.0509425,VALID,19.3059,VALID,139,VALID,0.531795,
2004-05-28, 02:29:00,VALID,918.637,VALID,0,VALID,100,VALID,0,VALID,19.3123,VALID,123,VALID,0.306286,
2004-05-28, 02:30:00,VALID,918.666,VALID,0,VALID,100,VALID,0,VALID,19.3123,VALID,132,VALID,0.732558,
2004-05-28, 02:31:00,VALID,918.647,VALID,0,VALID,100,VALID,0.0169808,VALID,19.3029,VALID,131,VALID,0.763317,
2004-05-28, 02:32:00,VALID,918.66,VALID,0,VALID,100,VALID,0.0339617,VALID,19.2731,VALID,147,VALID,1.10574,
2004-05-28, 02:33:00,VALID,918.65,VALID,0,VALID,100,VALID,0.0169808,VALID,19.2512,VALID,149,VALID,0.926235,
2004-05-28, 02:34:00,VALID,918.636,VALID,0,VALID,100,VALID,0,VALID,19.2286,VALID,142,VALID,0.956292,
2004-05-28, 02:35:00,VALID,918.627,VALID,0,VALID,100,VALID,0.0339617,VALID,19.206,VALID,136,VALID,0.977083,
2004-05-28, 02:36:00,VALID,918.617,VALID,0,VALID,100,VALID,0.0169808,VALID,19.1968,VALID,147,VALID,0.691592,
2004-05-28, 02:37:00,VALID,918.599,VALID,0,VALID,100,VALID,0.0169808,VALID,19.1864,VALID,139,VALID,0.912919,
2004-05-28, 02:38:00,VALID,918.585,VALID,0,VALID,100,VALID,0.0169808,VALID,19.1871,VALID,150,VALID,0.920603,
2004-05-28, 02:39:00,VALID,918.585,VALID,0,VALID,100,VALID,0,VALID,19.177,VALID,147,VALID,1,
2004-05-28, 02:40:00,VALID,918.585,VALID,0,VALID,100,VALID,0,VALID,19.1641,VALID,142,VALID,1.05575,
2004-05-28, 02:41:00,VALID,918.585,VALID,0,VALID,100,VALID,0,VALID,19.1616,VALID,136,VALID,0.908249,
2004-05-28, 02:42:00,VALID,918.576,VALID,0,VALID,100,VALID,-0.0169808,VALID,19.1675,VALID,148,VALID,1.06603,
2004-05-28, 02:43:00,VALID,918.572,VALID,0,VALID,100,VALID,0,VALID,19.1415,VALID,126,VALID,0.946429,
2004-05-28, 02:44:00,VALID,918.575,VALID,0,VALID,100,VALID,0.0169808,VALID,19.1221,VALID,123,VALID,0.515997,
2004-05-28, 02:45:00,VALID,918.571,VALID,0,VALID,100,VALID,0,VALID,19.1412,VALID,143,VALID,0.69215,
2004-05-28, 02:46:00,VALID,918.568,VALID,0,VALID,100,VALID,0.0169808,VALID,19.1444,VALID,134,VALID,0.952744,
2004-05-28, 02:47:00,VALID,918.557,VALID,0,VALID,100,VALID,0.0339617,VALID,19.135,VALID,135,VALID,0.596236,
2004-05-28, 02:48:00,VALID,918.549,VALID,0,VALID,100,VALID,0.0169808,VALID,19.1387,VALID,135,VALID,0.6379,
2004-05-28, 02:49:00,VALID,918.536,VALID,0,VALID,100,VALID,0,VALID,19.1256,VALID,146,VALID,0.760719,
2004-05-28, 02:50:00,VALID,918.517,VALID,0,VALID,100,VALID,0,VALID,19.1288,VALID,137,VALID,1.00949,
2004-05-28, 02:51:00,VALID,918.504,VALID,0,VALID,100,VALID,0.0169808,VALID,19.1544,VALID,132,VALID,0.805233,
2004-05-28, 02:52:00,VALID,918.475,VALID,0,VALID,100,VALID,0,VALID,19.141,VALID,121,VALID,1.07999,
2004-05-28, 02:53:00,VALID,918.457,VALID,0,VALID,100,VALID,0,VALID,19.1578,VALID,115,VALID,0.833452,
2004-05-28, 02:54:00,VALID,918.44,VALID,0,VALID,100,VALID,0,VALID,19.1544,VALID,132,VALID,0.977121,
2004-05-28, 02:55:00,VALID,918.419,VALID,0,VALID,100,VALID,0.0339617,VALID,19.1447,VALID,139,VALID,1.63652,
2004-05-28, 02:56:00,VALID,918.405,VALID,0,VALID,100,VALID,0.0169808,VALID,19.1285,VALID,117,VALID,1.03683,
2004-05-28, 02:57:00,VALID,918.409,VALID,0,VALID,100,VALID,0.0339617,VALID,19.1154,VALID,113,VALID,0.824405,
2004-05-28, 02:58:00,VALID,918.413,VALID,0,VALID,100,VALID,0.0339617,VALID,19.1094,VALID,147,VALID,0.54809,
2004-05-28, 02:59:00,VALID,918.422,VALID,0,VALID,100,VALID,-0.0169808,VALID,19.1027,VALID,113,VALID,0.518102,
2004-05-28, 03:00:00,VALID,918.436,VALID,0,VALID,100,VALID,0,VALID,19.0995,VALID,111,VALID,0.341264,
2004-05-28, 03:01:00,VALID,918.438,VALID,0,VALID,100,VALID,0.0339617,VALID,19.1159,VALID,124,VALID,0.284624,
2004-05-28, 03:02:00,VALID,918.433,VALID,0,VALID,100,VALID,0,VALID,19.129,VALID,168,VALID,0.650521,
2004-05-28, 03:03:00,VALID,918.399,VALID,0,VALID,100,VALID,0.0339617,VALID,19.1062,VALID,135,VALID,0.13941,
2004-05-28, 03:04:00,VALID,918.359,VALID,0,VALID,100,VALID,-0.0169808,VALID,19.1233,VALID,147,VALID,0.638021,
2004-05-28, 03:05:00,VALID,918.317,VALID,0,VALID,100,VALID,-0.101885,VALID,19.1046,VALID,150,VALID,1.02521,
2004-05-28, 03:06:00,VALID,918.282,VALID,0,VALID,100,VALID,-0.101885,VALID,19.0818,VALID,142,VALID,0.74442,
2004-05-28, 03:07:00,VALID,918.247,VALID,0,VALID,100,VALID,-0.0849042,VALID,19.0984,VALID,139,VALID,0.962028,
2004-05-28, 03:08:00,VALID,918.226,VALID,0,VALID,100,VALID,-0.101885,VALID,19.085,VALID,142,VALID,0.983041,
2004-05-28, 03:09:00,VALID,918.211,VALID,0,VALID,100,VALID,-0.0849042,VALID,19.088,VALID,131,VALID,0.753906,
2004-05-28, 03:10:00,VALID,918.204,VALID,0,VALID,100,VALID,-0.101885,VALID,19.0885,VALID,130,VALID,1.06389,
2004-05-28, 03:11:00,VALID,918.216,VALID,0,VALID,100,VALID,-0.101885,VALID,19.0749,VALID,107,VALID,0.990091,
2004-05-28, 03:12:00,VALID,918.216,VALID,0,VALID,100,VALID,-0.101885,VALID,19.0749,VALID,78,VALID,0.864826,
2004-05-28, 03:13:00,VALID,918.232,VALID,0,VALID,100,VALID,-0.0849042,VALID,19.1046,VALID,114,VALID,1.09449,
2004-05-28, 03:14:00,VALID,918.247,VALID,0,VALID,100,VALID,-0.0849042,VALID,19.0912,VALID,64,VALID,0.747638,
2004-05-28, 03:15:00,VALID,918.256,VALID,0,VALID,100,VALID,-0.101885,VALID,19.1203,VALID,55,VALID,1.00645,
2004-05-28, 03:16:00,VALID,918.274,VALID,0,VALID,100,VALID,-0.0849042,VALID,19.1399,VALID,49,VALID,1.12195,
2004-05-28, 03:17:00,VALID,918.282,VALID,0,VALID,100,VALID,-0.101885,VALID,19.1268,VALID,56,VALID,0.988009,
2004-05-28, 03:18:00,VALID,918.3,VALID,0,VALID,100,VALID,-0.101885,VALID,19.1337,VALID,68,VALID,0.539063,
2004-05-28, 03:19:00,VALID,918.291,VALID,0,VALID,100,VALID,-0.0849042,VALID,19.1235,VALID,85,VALID,0.50218,
2004-05-28, 03:20:00,VALID,918.283,VALID,0,VALID,100,VALID,-0.0169808,VALID,19.1263,VALID,86,VALID,0.676962,
2004-05-28, 03:21:00,VALID,918.271,VALID,0,VALID,100,VALID,0,VALID,19.1064,VALID,105,VALID,0.63891,
2004-05-28, 03:22:00,VALID,918.251,VALID,0,VALID,100,VALID,0,VALID,19.103,VALID,93,VALID,0.803757,
2004-05-28, 03:23:00,VALID,918.237,VALID,0,VALID,100,VALID,0,VALID,19.0933,VALID,62,VALID,1.45294,
2004-05-28, 03:24:00,VALID,918.211,VALID,0,VALID,100,VALID,0.0169808,VALID,19.0997,VALID,47,VALID,1.20871,
2004-05-28, 03:25:00,VALID,918.208,VALID,0,VALID,100,VALID,-0.0169808,VALID,19.1032,VALID,84,VALID,0.852134,
2004-05-28, 03:26:00,VALID,918.181,VALID,0,VALID,100,VALID,0,VALID,19.1002,VALID,84,VALID,1.19382,
2004-05-28, 03:27:00,VALID,918.172,VALID,0,VALID,100,VALID,0,VALID,19.0709,VALID,110,VALID,1.12686,
2004-05-28, 03:28:00,VALID,918.167,VALID,0,VALID,100,VALID,-0.0169808,VALID,19.0741,VALID,147,VALID,0.593205,
2004-05-28, 03:29:00,VALID,918.17,VALID,0,VALID,100,VALID,-0.0169808,VALID,19.0647,VALID,137,VALID,0.838889,
2004-05-28, 03:30:00,VALID,918.165,VALID,0,VALID,100,VALID,0,VALID,19.0682,VALID,144,VALID,0.543527,
2004-05-28, 03:31:00,VALID,918.167,VALID,0,VALID,100,VALID,0,VALID,19.0682,VALID,134,VALID,0.124132,
2004-05-28, 03:32:00,VALID,918.153,VALID,0,VALID,100,VALID,-0.0169808,VALID,19.0642,VALID,117,VALID,0.558966,
2004-05-28, 03:33:00,VALID,918.15,VALID,0,VALID,100,VALID,0,VALID,19.0515,VALID,143,VALID,0.300781,
2004-05-28, 03:34:00,VALID,918.139,VALID,0,VALID,100,VALID,-0.0169808,VALID,19.055,VALID,92,VALID,0.245998,
2004-05-28, 03:35:00,VALID,918.126,VALID,0,VALID,100,VALID,0,VALID,19.0386,VALID,100,VALID,0.537109,
2004-05-28, 03:36:00,VALID,918.104,VALID,0,VALID,100,VALID,-0.0509425,VALID,19.061,VALID,91,VALID,0.113889,
2004-05-28, 03:37:00,VALID,918.096,VALID,0,VALID,100,VALID,0,VALID,19.0677,VALID,108,VALID,0.300114,
2004-05-28, 03:38:00,VALID,918.067,VALID,0,VALID,100,VALID,0,VALID,19.0548,VALID,124,VALID,0.75071,
2004-05-28, 03:39:00,VALID,918.063,VALID,0,VALID,100,VALID,0,VALID,19.0453,VALID,119,VALID,0.610352,
2004-05-28, 03:40:00,VALID,918.053,VALID,0,VALID,100,VALID,0,VALID,19.0252,VALID,126,VALID,0.498326,
2004-05-28, 03:41:00,VALID,918.051,VALID,0,VALID,100,VALID,0,VALID,19.0282,VALID,118,VALID,0.234557,
2004-05-28, 03:42:00,VALID,918.051,VALID,0,VALID,100,VALID,-0.0169808,VALID,19.0421,VALID,117,VALID,0.273624,
2004-05-28, 03:43:00,VALID,918.06,VALID,0,VALID,100,VALID,0.0169808,VALID,19.0356,VALID,122,VALID,0.294779,
2004-05-28, 03:44:00,VALID,918.071,VALID,0,VALID,100,VALID,-0.0339617,VALID,19.0386,VALID,147,VALID,0.381904,